World > North America > United States > Washington

Elk Plain, Washington Regional Weather

Lat: 47.05N, Lon: 122.38W
Wx Zone: WAZ509
Feedback

Elk Plain, WA Regional Weather

Expires:202001211800;;298553
ASUS46 KSEW 211710
RWRWA 

WASHINGTON REGIONAL WEATHER ROUNDUP
NATIONAL WEATHER SERVICE SEATTLE WA
900 AM PST TUE JAN 21 2020

NOTE:"FAIR" INDICATES FEW OR NO CLOUDS BELOW 12,000 FEET WITH NO 
SIGNIFICANT WEATHER AND/OR OBSTRUCTIONS TO VISIBILITY.


WAZ507-509-555>559-211800-
SEATTLE, TACOMA, EVERETT, AND VICINITY
  
CITY           SKY/WX    TMP DP  RH WIND       PRES   REMARKS
EVERETT        CLOUDY    45  41  86 SE15G21   29.71R                  
BOEING FIELD   FAIR      46  40  79 SE10      29.72R                  
RENTON         FAIR      48  37  65 S9        29.72R                  
SEATAC AIRPORT FAIR      48  38  68 S15       29.71R                  
JBLM-MCCHORD   MOCLDY    46  46  99 SE6       29.72S                  
PUYALLUP       FAIR      46  41  81 CALM      29.73S                  
BREMERTON      MOCLDY    44  42  93 S12       29.70R                  
JBLM-FT LEWIS  CLOUDY    45  45 100 SE10      29.71S                  
TACOMA NARROWS MOCLDY    44  39  82 S8        29.71S                  
$$
 

SKY/WX - Weather  TMP - Temperature  DP - Dew Point  RH - Relative Humidity
WIND - Wind Direction/Speed PRES - Barometric Pressure VSB - Visibility
WCI - Wind Chill Index E13G22 Wind - East Wind 13 mph/Gusts of 22 mph